• In Hungary
  • List of Countries
  • For 7 days
  • Water Temperature
  • Satellite Maps
  • Weather Map
  • News
  • Weather Widgets
  • user-avatar
    Login

    Hourly Weather Pszczolki

    Today, 12 December, Tuesday

    Time Temperature Precipitation Wind Pressure Humidity
    00:00 +3°C° 0.2 mm 6 mps 740 mmHg 92%
    01:00 +3°C° 0.2 mm 6 mps 740 mmHg 92%
    02:00 +4°C° 0.1 mm 6 mps 739 mmHg 93%
    03:00 +5°C° 0.1 mm 5 mps 739 mmHg 93%
    04:00 +5°C° 0.1 mm 5 mps 739 mmHg 93%
    05:00 +5°C° 0.1 mm 5 mps 739 mmHg 93%
    06:00 +5°C° 0.1 mm 5 mps 739 mmHg 93%
    07:00 +4°C° 0.1 mm 6 mps 740 mmHg 93%
    08:00 +4°C° 0 mm 6 mps 740 mmHg 90%
    09:00 +5°C° 0 mm 7 mps 741 mmHg 87%
    10:00 +5°C° 0 mm 7 mps 742 mmHg 85%
    11:00 +5°C° 0 mm 8 mps 742 mmHg 80%
    12:00 +5°C° 0 mm 8 mps 743 mmHg 75%
    13:00 +5°C° 0 mm 9 mps 743 mmHg 71%
    14:00 +5°C° 0 mm 9 mps 744 mmHg 71%
    15:00 +3°C° 0 mm 10 mps 744 mmHg 71%
    16:00 +3°C° 0 mm 10 mps 745 mmHg 72%
    17:00 +2°C° 0.1 mm 10 mps 746 mmHg 72%
    18:00 +2°C° 0.1 mm 10 mps 747 mmHg 72%
    19:00 +1°C° 0.1 mm 10 mps 747 mmHg 72%
    20:00 +1°C° 0.1 mm 10 mps 749 mmHg 73%
    21:00 +1°C° 0.1 mm 10 mps 750 mmHg 73%
    22:00 +1°C° 0.1 mm 10 mps 751 mmHg 74%
    23:00 0°C° 0 mm 9 mps 752 mmHg 73%

    Tomorrow, 13 December, Wednesday

    Time Temperature Precipitation Wind Pressure Humidity
    00:00 0°C° 0 mm 8 mps 753 mmHg 73%
    01:00 0°C° 0 mm 7 mps 754 mmHg 73%
    02:00 0°C° 0 mm 7 mps 755 mmHg 75%
    03:00 -1°C° 0 mm 7 mps 755 mmHg 77%
    04:00 -1°C° 0 mm 7 mps 756 mmHg 79%
    05:00 -1°C° 0 mm 6 mps 756 mmHg 80%
    06:00 -1°C° 0 mm 6 mps 757 mmHg 81%
    07:00 -1°C° 0 mm 6 mps 757 mmHg 82%
    08:00 -1°C° 0 mm 6 mps 757 mmHg 82%
    09:00 -1°C° 0 mm 6 mps 757 mmHg 82%
    10:00 -1°C° 0 mm 6 mps 758 mmHg 81%
    11:00 -1°C° 0 mm 6 mps 757 mmHg 80%
    12:00 -1°C° 0 mm 6 mps 757 mmHg 78%
    13:00 -1°C° 0 mm 7 mps 756 mmHg 76%
    14:00 -1°C° 0 mm 7 mps 756 mmHg 77%
    15:00 -1°C° 0 mm 7 mps 755 mmHg 78%
    16:00 -2°C° 0 mm 7 mps 755 mmHg 79%
    17:00 -2°C° 0 mm 7 mps 754 mmHg 77%
    18:00 -2°C° 0 mm 7 mps 754 mmHg 76%
    19:00 -2°C° 0 mm 8 mps 753 mmHg 75%
    20:00 -2°C° 0 mm 8 mps 752 mmHg 74%
    21:00 -2°C° 0 mm 8 mps 751 mmHg 73%
    22:00 -3°C° 0 mm 9 mps 750 mmHg 72%
    23:00 -3°C° 0.1 mm 9 mps 749 mmHg 72%

    Day after tomorrow, 14 December, Thursday

    Time Temperature Precipitation Wind Pressure Humidity
    00:00 -1°C° 0.1 mm 9 mps 748 mmHg 72%
    01:00 -1°C° 0.1 mm 9 mps 747 mmHg 73%
    02:00 -1°C° 0.1 mm 9 mps 746 mmHg 74%
    03:00 -1°C° 0.1 mm 9 mps 745 mmHg 75%
    04:00 -1°C° 0.1 mm 9 mps 744 mmHg 76%
    05:00 -1°C° 0.2 mm 9 mps 744 mmHg 76%
    06:00 0°C° 0.2 mm 9 mps 743 mmHg 75%
    07:00 0°C° 0.2 mm 9 mps 742 mmHg 75%
    08:00 0°C° 0.1 mm 8 mps 742 mmHg 78%
    09:00 +1°C° 0.1 mm 8 mps 742 mmHg 80%
    10:00 +2°C° 0.1 mm 7 mps 742 mmHg 83%
    11:00 +2°C° 0.2 mm 7 mps 742 mmHg 82%
    12:00 +2°C° 0.2 mm 6 mps 742 mmHg 82%
    13:00 +3°C° 0.2 mm 5 mps 742 mmHg 81%
    14:00 +2°C° 0.6 mm 6 mps 742 mmHg 79%
    15:00 +2°C° 0.6 mm 7 mps 743 mmHg 76%
    16:00 0°C° 0.6 mm 8 mps 743 mmHg 74%
    17:00 0°C° 0 mm 8 mps 743 mmHg 74%
    18:00 -1°C° 0 mm 8 mps 744 mmHg 74%
    19:00 -1°C° 0 mm 7 mps 744 mmHg 75%
    20:00 -2°C° 0 mm 7 mps 744 mmHg 75%
    21:00 -2°C° 0 mm 7 mps 744 mmHg 75%
    22:00 -2°C° 0 mm 7 mps 745 mmHg 75%
    23:00 -2°C° 0 mm 7 mps 744 mmHg 74%

    15 December, Friday

    Time Temperature Precipitation Wind Pressure Humidity
    00:00 -2°C° 0 mm 7 mps 744 mmHg 74%
    01:00 -2°C° 0 mm 6 mps 744 mmHg 73%
    02:00 -2°C° 0 mm 6 mps 743 mmHg 73%
    03:00 -2°C° 0 mm 6 mps 743 mmHg 73%
    04:00 -1°C° 0 mm 5 mps 743 mmHg 73%
    05:00 -1°C° 0.2 mm 5 mps 742 mmHg 77%
    06:00 0°C° 0.2 mm 5 mps 742 mmHg 82%
    07:00 0°C° 0.2 mm 5 mps 741 mmHg 87%
    08:00 0°C° 0.6 mm 5 mps 741 mmHg 88%
    09:00 0°C° 0.6 mm 4 mps 741 mmHg 90%
    10:00 0°C° 0.6 mm 4 mps 741 mmHg 91%
    11:00 0°C° 0.6 mm 5 mps 741 mmHg 90%
    12:00 -1°C° 0.6 mm 6 mps 742 mmHg 89%
    13:00 -1°C° 0.6 mm 7 mps 742 mmHg 87%
    14:00 -1°C° 0.2 mm 7 mps 743 mmHg 87%
    15:00 -1°C° 0.2 mm 6 mps 744 mmHg 87%
    16:00 -1°C° 0.2 mm 6 mps 744 mmHg 87%
    17:00 -1°C° 0 mm 6 mps 745 mmHg 88%
    18:00 -1°C° 0 mm 5 mps 746 mmHg 88%
    19:00 -1°C° 0 mm 5 mps 746 mmHg 89%
    20:00 -2°C° 0 mm 5 mps 747 mmHg 90%
    21:00 -2°C° 0 mm 5 mps 747 mmHg 91%
    22:00 -3°C° 0 mm 4 mps 747 mmHg 92%
    23:00 -3°C° 0 mm 4 mps 747 mmHg 93%

    16 December, Saturday

    Time Temperature Precipitation Wind Pressure Humidity
    00:00 -3°C° 0 mm 4 mps 748 mmHg 93%
    01:00 -3°C° 0 mm 4 mps 748 mmHg 94%
    02:00 -2°C° 0 mm 3 mps 748 mmHg 94%
    03:00 -2°C° 0 mm 3 mps 748 mmHg 94%
    04:00 -1°C° 0 mm 3 mps 748 mmHg 94%
    05:00 -1°C° 0 mm 3 mps 748 mmHg 94%
    06:00 -1°C° 0 mm 3 mps 748 mmHg 93%
    07:00 -1°C° 0 mm 3 mps 748 mmHg 92%
    08:00 0°C° 0.1 mm 3 mps 748 mmHg 92%
    09:00 0°C° 0.1 mm 3 mps 749 mmHg 91%
    10:00 0°C° 0.1 mm 3 mps 749 mmHg 90%
    11:00 0°C° 0.1 mm 3 mps 749 mmHg 91%
    12:00 +1°C° 0.1 mm 3 mps 749 mmHg 91%
    13:00 +1°C° 0.1 mm 3 mps 749 mmHg 92%
    14:00 0°C° 0 mm 3 mps 749 mmHg 92%
    15:00 0°C° 0 mm 3 mps 749 mmHg 92%
    16:00 0°C° 0 mm 3 mps 750 mmHg 92%
    17:00 -1°C° 0 mm 4 mps 750 mmHg 91%
    18:00 -1°C° 0 mm 4 mps 750 mmHg 90%
    19:00 -1°C° 0 mm 5 mps 751 mmHg 89%
    20:00 -1°C° 0 mm 5 mps 751 mmHg 89%
    21:00 -1°C° 0 mm 5 mps 751 mmHg 88%
    22:00 -2°C° 0 mm 6 mps 752 mmHg 87%
    23:00 -2°C° 0 mm 6 mps 752 mmHg 87%

    17 December, Sunday

    Time Temperature Precipitation Wind Pressure Humidity
    00:00 -2°C° 0 mm 6 mps 752 mmHg 86%
    01:00 -2°C° 0 mm 6 mps 752 mmHg 86%
    02:00 -2°C° 0 mm 6 mps 753 mmHg 87%
    03:00 -1°C° 0 mm 5 mps 753 mmHg 87%
    04:00 -1°C° 0 mm 5 mps 753 mmHg 88%
    05:00 -2°C° 0 mm 5 mps 753 mmHg 88%
    06:00 -2°C° 0 mm 5 mps 754 mmHg 88%
    07:00 -2°C° 0 mm 5 mps 754 mmHg 88%
    08:00 -1°C° 0 mm 5 mps 754 mmHg 87%
    09:00 -1°C° 0 mm 5 mps 755 mmHg 86%
    10:00 -1°C° 0 mm 5 mps 755 mmHg 85%
    11:00 -1°C° 0 mm 5 mps 755 mmHg 85%
    12:00 -1°C° 0 mm 5 mps 756 mmHg 84%
    13:00 -1°C° 0 mm 5 mps 756 mmHg 84%
    14:00 -1°C° 0 mm 5 mps 756 mmHg 85%
    15:00 -1°C° 0 mm 5 mps 756 mmHg 85%
    16:00 -1°C° 0 mm 5 mps 757 mmHg 85%
    17:00 -1°C° 0 mm 5 mps 757 mmHg 86%
    18:00 -1°C° 0 mm 5 mps 757 mmHg 86%
    19:00 -2°C° 0 mm 5 mps 758 mmHg 86%
    20:00 -2°C° 0 mm 5 mps 758 mmHg 87%
    21:00 -2°C° 0 mm 4 mps 758 mmHg 88%
    22:00 -2°C° 0 mm 4 mps 759 mmHg 89%
    23:00 -1°C° 0 mm 4 mps 759 mmHg 89%
    Show more